Weather History for Guymon, OK

Change the Weather History Date:

Saturday, November 2, 2013

  Actual Average Record
Temperature  
Mean Temperature 48 °F 51 °F  
Max Temperature 66 °F 66 °F 89 °F (2005)
Min Temperature 29 °F 36 °F 23 °F (2006)
Degree Days  
Heating Degree Days 17 14  
Month to date heating degree days 33 27  
Since 1 July heating degree days 304 336  
Cooling Degree Days 0 0  
Month to date cooling degree days 0 0  
Year to date cooling degree days 1846 1481  
Moisture  
Dew Point 28 °F    
Average Humidity 55    
Maximum Humidity 85    
Minimum Humidity 24    
Precipitation  
Precipitation 0.00 in 0.02 in 0.07 in (2002)
Month to date precipitation 0.00 0.04  
Year to date precipitation 14.32 18.17  
Snow  
Snow 0.00 in - - ()
Month to date snowfall 0.0  
Since 1 July snowfall T  
Since 1 September snowfall T  
Snow Depth 0.00 in    
Sea Level Pressure  
Sea Level Pressure 30.16 in    
Wind  
Wind Speed 9 mph (South)    
Max Wind Speed 24 mph    
Max Gust Speed 30 mph    
Visibility 10 miles    
Events      
T = Trace of Precipitation, MM = Missing Value Source: NWS Daily Summary

Daily Weather History Graph

Daily Weather History Graph

Search for Another Location

Airport:

Trip Planner

Search our weather history database for the weather conditions in past years. The results will help you decide how hot, cold, wet, or windy it might be!

Date:

Astronomy

Nov. 02, 2013 Rise Set
Actual Time 8:10 AM CDT 6:47 PM CDT
Civil Twilight 7:44 AM CDT 7:14 PM CDT
Nautical Twilight 7:13 AM CDT 7:45 PM CDT
Astronomical Twilight 6:43 AM CDT 8:15 PM CDT
Moon 7:11 AM CDT (11/2) 6:20 PM CDT (11/2)
Length of Visible Light 11h 30m
Length of Day
10h 36m
Waning Crescent, 1% of the Moon is Illuminated
Nov 2
Waning Crescent
Nov 3
New
Nov 9
First Quarter
Nov 17
Full
Nov 25
Last Quarter

Hourly Weather History & Observations

Time (CDT) Temp. Windchill Dew Point Humidity Pressure Visibility Wind Dir Wind Speed Gust Speed Precip Events Conditions
12:53 AM 39.0 °F 33.4 °F 30.9 °F 73% 30.22 in 10.0 mi West 8.1 mph - N/A   Clear
1:53 AM 37.9 °F - 28.9 °F 70% 30.22 in 10.0 mi Calm Calm - N/A   Clear
2:53 AM 37.0 °F - 28.9 °F 73% 30.23 in 10.0 mi Calm Calm - N/A   Clear
3:53 AM 37.0 °F 34.5 °F 28.9 °F 73% 30.25 in 10.0 mi WSW 3.5 mph - N/A   Clear
4:53 AM 35.1 °F - 27.0 °F 72% 30.25 in 10.0 mi Calm Calm - N/A   Clear
5:53 AM 34.0 °F - 27.0 °F 75% 30.26 in 10.0 mi Calm Calm - N/A   Clear
6:53 AM 34.0 °F - 27.0 °F 75% 30.29 in 10.0 mi Calm Calm - N/A   Clear
7:53 AM 30.9 °F - 25.0 °F 79% 30.31 in 10.0 mi Calm Calm - N/A   Clear
8:53 AM 30.9 °F - 26.1 °F 82% 30.32 in 10.0 mi Calm Calm - N/A   Clear
9:53 AM 37.9 °F - 30.9 °F 76% 30.33 in 10.0 mi Calm Calm - N/A   Clear
10:53 AM 48.0 °F - 28.0 °F 46% 30.30 in 10.0 mi SSE 6.9 mph - N/A   Clear
11:53 AM 52.0 °F - 28.0 °F 40% 30.28 in 10.0 mi SSE 11.5 mph - N/A   Clear
12:53 PM 59.0 °F - 30.0 °F 33% 30.22 in 10.0 mi SSW 18.4 mph 24.2 mph N/A   Clear
1:53 PM 63.0 °F - 28.9 °F 28% 30.17 in 10.0 mi SSW 19.6 mph 26.5 mph N/A   Clear
2:53 PM 64.0 °F - 28.0 °F 26% 30.12 in 10.0 mi SW 20.7 mph 28.8 mph N/A   Clear
3:53 PM 64.9 °F - 28.0 °F 25% 30.08 in 10.0 mi SSW 18.4 mph 29.9 mph N/A   Clear
4:53 PM 66.0 °F - 28.0 °F 24% 30.05 in 10.0 mi South 19.6 mph 26.5 mph N/A   Clear
5:53 PM 64.9 °F - 28.9 °F 26% 30.02 in 10.0 mi South 17.3 mph 24.2 mph N/A   Clear
6:53 PM 60.1 °F - 30.0 °F 32% 30.02 in 10.0 mi South 10.4 mph - N/A   Clear
7:53 PM 54.0 °F - 30.9 °F 41% 30.03 in 10.0 mi SSE 10.4 mph - N/A   Clear
8:53 PM 55.0 °F - 28.9 °F 37% 30.02 in 10.0 mi South 13.8 mph - N/A   Clear
9:53 PM 53.1 °F - 28.9 °F 40% 29.99 in 10.0 mi South 12.7 mph 20.7 mph N/A   Clear
10:53 PM 50.0 °F - 28.9 °F 44% 29.97 in 10.0 mi South 11.5 mph - N/A   Clear
11:53 PM 48.0 °F - 28.0 °F 46% 29.95 in 10.0 mi South 12.7 mph - N/A   Clear